Regional Weather Roundup
Issued by NWS

Home | Current Version | Previous Version | Graphics & Text | Print | Product List | Glossary On
Versions: 1 2 3 4 5 6 7 8 9 10 11 12 13 14 15 16 17 18 19 20 21 22 23 24 25 26 27
000
ASUS45 KCYS 251810
RWRWY

WYOMING REGIONAL WEATHER ROUNDUP
NATIONAL WEATHER SERVICE CHEYENNE WY
1200 PM MDT TUE APR 25 2017

NOTE:  "FAIR" INDICATES FEW OR NO CLOUDS BELOW 12,000 FEET
WITH NO SIGNIFICANT WEATHER AND/OR OBSTRUCTIONS TO VISIBILITY.

WYZ001-251900-
YELLOWSTONE NATIONAL PARK

CITY           SKY/WX    TMP DP  RH WIND       PRES   REMARKS
LK YELLOWSTONE   N/A     36  27  69 VRB7      29.78R WCI  30
6HR MIN TEMP:  27; 6HR MAX TEMP:  36; 6HR PCP:  0.01;

W YELLOWSTONE  NOT AVBL

$$
WYZ002>013-054>058-071-098>099-251900-
NORTHERN WYOMING

CITY           SKY/WX    TMP DP  RH WIND       PRES   REMARKS
JACKSON        PTSUNNY   39  32  75 CALM      29.75R
CODY           MIX PCPN  35  31  85 N13       29.82R WCI  26
GREYBULL       CLOUDY    39  29  67 NW32G40   29.72R WCI  27
6HR MIN TEMP:  37; 6HR MAX TEMP:  42; 6HR PCP: TRACE;

WORLAND        CLOUDY    42  35  76 NW21G33   29.72R
6HR MIN TEMP:  40; 6HR MAX TEMP:  42; 6HR PCP: TRACE;

SHERIDAN       LGT SNOW  32  29  88 N9        29.84R VSB 1   WCI  24
6HR MIN TEMP:  32; 6HR MAX TEMP:  33; 6HR PCP:  0.71;

BUFFALO        NOT AVBL
GILLETTE       LGT SNOW  29  50 100 N18       29.76R WCI  16
6HR MIN TEMP:  27; 6HR MAX TEMP:  32; 6HR PCP:  0.21;

HULETT         FLURRIES  30  25  80 NE14G21   29.76R WCI  20
NEWCASTLE      LGT RAIN  36  32  87 NE3       29.67R

$$
WYZ014>020-022>026-101>103-251900-
CENTRAL WYOMING

CITY           SKY/WX    TMP DP  RH WIND       PRES   REMARKS
BIG PINEY      CLOUDY    41  25  53 NW17      29.72R
6HR MIN TEMP:  25; 6HR MAX TEMP:  41;

PINEDALE       MOCLDY    37  30  75 NW20G26   29.72S WCI  27
DUBOIS         CLOUDY    39  21  48 NE3       29.70R
LANDER         FLURRIES  36  34  92 W10       29.73R WCI  28
6HR MIN TEMP:  31; 6HR MAX TEMP:  39; 6HR PCP:  0.08;

RIVERTON       FLURRIES  36  33  89 N21G29    29.73R WCI  25
6HR MIN TEMP:  35; 6HR MAX TEMP:  38; 6HR PCP:  0.26;

CASPER         LGT SNOW  31  27  85 N21       29.72R FOG     WCI  18
6HR MIN TEMP:  30; 6HR MAX TEMP:  39; 6HR PCP:  0.21;

DOUGLAS        LGT SNOW  34  28  79 NW23G37   29.66R WCI  22
6HR MIN TEMP:  33; 6HR MAX TEMP:  40; 6HR PCP:  0.01;


$$
WYZ021-027>030-104>119-251900-
SOUTHERN WYOMING

CITY           SKY/WX    TMP DP  RH WIND       PRES   REMARKS
EVANSTON       CLOUDY    39  30  70 NW20      29.78R WCI  29
6HR MIN TEMP:  31; 6HR MAX TEMP:  40;

KEMMERER         N/A     37  30  75 W22G31    29.77R WCI  27
FORT BRIDGER   LGT SNOW  37  32  81 W13G23    29.80R WCI  29
ROCK SPRINGS   CLOUDY    43  27  53 W13G25    29.70R
6HR MIN TEMP:  32; 6HR MAX TEMP:  44;

DIXON            N/A     44  27  52 W9        29.71S
RAWLINS        SNOW      34  31  88 N14       29.67R VSB 1/2 WCI  25
6HR MIN TEMP:  32; 6HR MAX TEMP:  41; 6HR PCP:  0.03;

SARATOGA       CLOUDY    43  28  56 W16G23    29.67F
LARAMIE        FAIR      46  24  42 W23G37    29.61R
6HR MIN TEMP:  30; 6HR MAX TEMP:  46;

CHEYENNE       FAIR      48  25  40 W23       29.61R
6HR MIN TEMP:  35; 6HR MAX TEMP:  49;

TORRINGTON     LGT RAIN  45  40  82 NE18      29.60R
6HR MIN TEMP:  41; 6HR MAX TEMP:  52; 6HR PCP: TRACE;

PINE BLUFFS    CLOUDY    52  28  40 W18       29.60F

$$




USA.gov is the U.S. government's official web portal to all federal, state and local government web resources and services.